Location: Baia Mare
(47.6567°N, 23.5850°E)
Time: 03:49:18
(UTC+03:00)

ISS - Pass Details

Date: 06 September 2018
Orbit: 403 x 408 km, 51.6° (Epoch: 25 September)

Event Time Altitude Azimuth Distance (km) Brightness Sun altitude
Exits shadow 05:41:35 17° 276° (W) 1,111 -2.1 -11.9°
Maximum altitude 05:43:52 48° 347° (NNW) 536 -3.2 -11.5°
Drops below altitude 10° 05:47:04 10° 64° (ENE) 1,464 0.6 -11.0°
Sets 05:49:12 0° 70° (ENE) 2,324 2.3 -10.7°
